TAM3209 SBUL-SBGR

Flight info

Callsign TAM3209
Flight time 0h 57m
Altitude 36000
Route ASTOB DCT UPONA DCT OBLUG UZ42 ZARES
Aircraft A319/M-SDE3FGHIRWY/LB1

Departure

Time 2026-05-04 22:45
Airport Ten. Cel. Aviador César Bombonato Airport (SBUL)

Arrival

Time 2026-05-04 23:43
Airport São Paulo/Guarulhos–Governor André Franco Montoro International Airport (SBGR)
Time Latitude Longitude Altitude Speed Heading
2026-05-04 21:53 -18.88960 -48.23027 3080 ft 0 kts 247°
2026-05-04 22:38 -18.88960 -48.23026 3079 ft 0 kts 247°
2026-05-04 22:38 -18.88959 -48.23025 3080 ft 1 kts 247°
2026-05-04 22:39 -18.88953 -48.23010 3080 ft 2 kts 247°
2026-05-04 22:39 -18.88948 -48.22995 3080 ft 2 kts 247°
2026-05-04 22:39 -18.88944 -48.22986 3080 ft 1 kts 248°
2026-05-04 22:39 -18.88937 -48.22973 3080 ft 2 kts 226°
2026-05-04 22:40 -18.88925 -48.22963 3081 ft 2 kts 208°
2026-05-04 22:40 -18.88919 -48.22960 3081 ft 1 kts 199°
2026-05-04 22:40 -18.88915 -48.22958 3081 ft 0 kts 201°
2026-05-04 22:40 -18.88916 -48.22958 3081 ft 0 kts 201°
2026-05-04 22:42 -18.88934 -48.22967 3080 ft 4 kts 204°
2026-05-04 22:42 -18.88963 -48.22980 3080 ft 4 kts 202°
2026-05-04 22:42 -18.88996 -48.22994 3080 ft 5 kts 202°
2026-05-04 22:43 -18.89027 -48.22995 3079 ft 4 kts 134°
2026-05-04 22:43 -18.89041 -48.22964 3080 ft 4 kts 112°
2026-05-04 22:43 -18.89055 -48.22929 3080 ft 6 kts 117°
2026-05-04 22:43 -18.89097 -48.22918 3080 ft 7 kts 200°
2026-05-04 22:44 -18.89147 -48.22927 3079 ft 8 kts 175°
2026-05-04 22:44 -18.89211 -48.22929 3078 ft 8 kts 223°
2026-05-04 22:44 -18.89188 -48.22957 3078 ft 6 kts 14°
2026-05-04 22:44 -18.89048 -48.22897 3080 ft 52 kts 22°
2026-05-04 22:45 -18.88496 -48.22654 3084 ft 117 kts 23°
2026-05-04 22:45 -18.86468 -48.21802 3729 ft 164 kts 23°
2026-05-04 22:45 -18.85384 -48.21350 4240 ft 175 kts 24°
2026-05-04 22:46 -18.84239 -48.20778 4665 ft 190 kts 40°
2026-05-04 22:46 -18.83575 -48.19540 5025 ft 211 kts 86°
2026-05-04 22:46 -18.83992 -48.18047 5685 ft 225 kts 128°
2026-05-04 22:46 -18.85314 -48.17185 6490 ft 234 kts 168°
2026-05-04 22:47 -18.86940 -48.17339 7276 ft 241 kts 197°
2026-05-04 22:47 -18.88521 -48.17989 7958 ft 250 kts 202°
2026-05-04 22:47 -18.90182 -48.18733 8460 ft 268 kts 201°
2026-05-04 22:47 -18.91974 -48.19488 8947 ft 286 kts 200°
2026-05-04 22:48 -18.93870 -48.20235 9422 ft 303 kts 199°
2026-05-04 22:48 -18.95922 -48.21004 9863 ft 321 kts 198°
2026-05-04 22:48 -18.98103 -48.21797 10267 ft 340 kts 198°
2026-05-04 22:48 -19.00408 -48.22625 10650 ft 357 kts 198°
2026-05-04 22:49 -19.02773 -48.23465 11459 ft 358 kts 198°
2026-05-04 22:49 -19.05089 -48.24287 12525 ft 348 kts 198°
2026-05-04 22:49 -19.07339 -48.25079 13569 ft 337 kts 199°
2026-05-04 22:49 -19.09535 -48.25853 14456 ft 332 kts 199°
2026-05-04 22:50 -19.11716 -48.26622 15125 ft 333 kts 200°
2026-05-04 22:50 -19.13924 -48.27403 15751 ft 336 kts 200°
2026-05-04 22:50 -19.16149 -48.28190 16373 ft 338 kts 200°
2026-05-04 22:50 -19.18390 -48.28981 16989 ft 341 kts 200°
2026-05-04 22:51 -19.20648 -48.29778 17585 ft 343 kts 201°
2026-05-04 22:51 -19.22923 -48.30583 18178 ft 345 kts 200°
2026-05-04 22:51 -19.25209 -48.31393 18779 ft 347 kts 201°
2026-05-04 22:51 -19.27504 -48.32205 19383 ft 348 kts 200°
2026-05-04 22:52 -19.29805 -48.33020 19989 ft 349 kts 200°
2026-05-04 22:52 -19.32116 -48.33839 20570 ft 351 kts 200°
2026-05-04 22:52 -19.34436 -48.34660 21132 ft 352 kts 200°
2026-05-04 22:52 -19.36782 -48.35490 21561 ft 358 kts 200°
2026-05-04 22:53 -19.39159 -48.36332 22016 ft 362 kts 200°
2026-05-04 22:53 -19.41553 -48.37180 22544 ft 363 kts 200°
2026-05-04 22:53 -19.43956 -48.38029 23090 ft 364 kts 200°
2026-05-04 22:53 -19.46338 -48.38871 23588 ft 367 kts 200°
2026-05-04 22:54 -19.48771 -48.39733 24077 ft 369 kts 200°
2026-05-04 22:54 -19.51222 -48.40601 24545 ft 372 kts 201°
2026-05-04 22:54 -19.53694 -48.41477 25019 ft 375 kts 201°
2026-05-04 22:54 -19.56181 -48.42359 25497 ft 378 kts 201°
2026-05-04 22:55 -19.58685 -48.43247 25965 ft 380 kts 201°
2026-05-04 22:55 -19.61205 -48.44142 26429 ft 383 kts 201°
2026-05-04 22:55 -19.63743 -48.45044 26875 ft 385 kts 201°
2026-05-04 22:55 -19.66299 -48.45951 27312 ft 388 kts 201°
2026-05-04 22:56 -19.68873 -48.46865 27743 ft 390 kts 202°
2026-05-04 22:56 -19.71460 -48.47785 28170 ft 393 kts 202°
2026-05-04 22:56 -19.74065 -48.48711 28585 ft 395 kts 202°
2026-05-04 22:56 -19.76683 -48.49643 28995 ft 397 kts 202°
2026-05-04 22:57 -19.79313 -48.50579 29402 ft 399 kts 202°
2026-05-04 22:57 -19.81954 -48.51520 29805 ft 401 kts 202°
2026-05-04 22:57 -19.84571 -48.52452 30171 ft 403 kts 202°
2026-05-04 22:57 -19.87238 -48.53402 30540 ft 405 kts 202°
2026-05-04 22:58 -19.89918 -48.54356 30920 ft 406 kts 202°
2026-05-04 22:58 -19.92607 -48.55315 31278 ft 408 kts 202°
2026-05-04 22:58 -19.95305 -48.56274 31674 ft 408 kts 202°
2026-05-04 22:58 -19.97995 -48.57233 32156 ft 406 kts 202°
2026-05-04 22:59 -20.00669 -48.58186 32653 ft 404 kts 202°
2026-05-04 22:59 -20.03330 -48.59135 33116 ft 402 kts 203°
2026-05-04 22:59 -20.05979 -48.60080 33573 ft 400 kts 203°
2026-05-04 22:59 -20.08619 -48.61024 34080 ft 397 kts 203°
2026-05-04 23:00 -20.11214 -48.61950 34610 ft 394 kts 203°
2026-05-04 23:00 -20.13813 -48.62879 35061 ft 392 kts 203°
2026-05-04 23:00 -20.16402 -48.63805 35415 ft 392 kts 203°
2026-05-04 23:00 -20.18995 -48.64734 35748 ft 392 kts 203°
2026-05-04 23:01 -20.21563 -48.65654 36063 ft 393 kts 203°
2026-05-04 23:01 -20.24180 -48.66593 36107 ft 400 kts 203°
2026-05-04 23:01 -20.29549 -48.68520 36111 ft 411 kts 203°
2026-05-04 23:02 -20.35001 -48.70472 36114 ft 413 kts 203°
2026-05-04 23:02 -20.40468 -48.72431 36114 ft 413 kts 203°
2026-05-04 23:03 -20.45926 -48.74389 36117 ft 413 kts 203°
2026-05-04 23:03 -20.51386 -48.76349 36115 ft 413 kts 203°
2026-05-04 23:04 -20.56844 -48.78310 36115 ft 413 kts 203°
2026-05-04 23:04 -20.62296 -48.80271 36117 ft 412 kts 203°
2026-05-04 23:05 -20.67790 -48.82013 36116 ft 416 kts 199°
2026-05-04 23:05 -20.73508 -48.83199 36115 ft 419 kts 194°
2026-05-04 23:06 -20.79289 -48.84131 36117 ft 419 kts 194°
2026-05-04 23:06 -20.85071 -48.85051 36119 ft 419 kts 194°
2026-05-04 23:07 -20.90846 -48.85969 36117 ft 419 kts 194°
2026-05-04 23:07 -20.96623 -48.86888 36120 ft 418 kts 194°
2026-05-04 23:08 -21.02389 -48.87808 36119 ft 418 kts 194°
2026-05-04 23:08 -21.08113 -48.88718 36118 ft 417 kts 194°
2026-05-04 23:09 -21.13925 -48.89540 36118 ft 420 kts 191°
2026-05-04 23:09 -21.19816 -48.89669 36117 ft 426 kts 184°
2026-05-04 23:10 -21.25725 -48.88989 36115 ft 433 kts 177°
2026-05-04 23:10 -21.31644 -48.87475 36116 ft 439 kts 171°
2026-05-04 23:11 -21.37512 -48.85621 36115 ft 439 kts 171°
2026-05-04 23:11 -21.43381 -48.83749 36117 ft 439 kts 171°
2026-05-04 23:12 -21.49258 -48.81875 36116 ft 440 kts 171°
2026-05-04 23:12 -21.55131 -48.80003 36116 ft 439 kts 171°
2026-05-04 23:13 -21.61010 -48.78127 36114 ft 440 kts 171°
2026-05-04 23:13 -21.66849 -48.76263 36115 ft 439 kts 171°
2026-05-04 23:14 -21.72706 -48.74289 36066 ft 446 kts 165°
2026-05-04 23:14 -21.75452 -48.72733 35803 ft 446 kts 155°
2026-05-04 23:14 -21.77986 -48.70693 35531 ft 464 kts 146°
2026-05-04 23:15 -21.80297 -48.68209 35261 ft 474 kts 140°
2026-05-04 23:15 -21.82528 -48.65585 34988 ft 476 kts 139°
2026-05-04 23:15 -21.84753 -48.62946 34717 ft 477 kts 139°
2026-05-04 23:15 -21.86979 -48.60293 34444 ft 478 kts 139°
2026-05-04 23:16 -21.89209 -48.57631 34173 ft 479 kts 139°
2026-05-04 23:16 -21.91442 -48.54965 33904 ft 480 kts 139°
2026-05-04 23:16 -21.93688 -48.52304 33635 ft 480 kts 139°
2026-05-04 23:16 -21.95927 -48.49642 33371 ft 478 kts 139°
2026-05-04 23:17 -21.98151 -48.46986 33104 ft 477 kts 139°
2026-05-04 23:17 -22.00338 -48.44371 32853 ft 475 kts 139°
2026-05-04 23:17 -22.02554 -48.41735 32595 ft 474 kts 139°
2026-05-04 23:17 -22.04761 -48.39102 32338 ft 472 kts 139°
2026-05-04 23:18 -22.06956 -48.36474 32076 ft 471 kts 139°
2026-05-04 23:18 -22.09153 -48.33838 31815 ft 470 kts 138°
2026-05-04 23:18 -22.11328 -48.31224 31558 ft 468 kts 138°
2026-05-04 23:18 -22.13505 -48.28603 31303 ft 467 kts 138°
2026-05-04 23:19 -22.15675 -48.25990 31042 ft 465 kts 137°
2026-05-04 23:19 -22.17685 -48.23568 30804 ft 464 kts 137°
2026-05-04 23:19 -22.19836 -48.20973 30545 ft 463 kts 137°
2026-05-04 23:19 -22.21977 -48.18387 30290 ft 461 kts 137°
2026-05-04 23:20 -22.24110 -48.15812 30038 ft 460 kts 137°
2026-05-04 23:20 -22.26237 -48.13242 29781 ft 458 kts 137°
2026-05-04 23:20 -22.28353 -48.10684 29525 ft 456 kts 137°
2026-05-04 23:20 -22.30465 -48.08131 29269 ft 455 kts 137°
2026-05-04 23:21 -22.32539 -48.05622 29021 ft 453 kts 137°
2026-05-04 23:21 -22.34632 -48.03087 28767 ft 451 kts 137°
2026-05-04 23:21 -22.36716 -48.00564 28511 ft 449 kts 137°
2026-05-04 23:21 -22.38791 -47.98050 28259 ft 446 kts 137°
2026-05-04 23:22 -22.40853 -47.95553 28001 ft 444 kts 137°
2026-05-04 23:22 -22.42904 -47.93065 27750 ft 442 kts 137°
2026-05-04 23:22 -22.44941 -47.90593 27496 ft 439 kts 137°
2026-05-04 23:22 -22.46969 -47.88131 27240 ft 437 kts 137°
2026-05-04 23:23 -22.48978 -47.85690 26902 ft 432 kts 137°
2026-05-04 23:23 -22.50966 -47.83273 26356 ft 429 kts 137°
2026-05-04 23:23 -22.52939 -47.80876 25819 ft 426 kts 136°
2026-05-04 23:23 -22.54896 -47.78497 25313 ft 421 kts 136°
2026-05-04 23:24 -22.56833 -47.76140 24801 ft 417 kts 136°
2026-05-04 23:24 -22.58753 -47.73803 24305 ft 413 kts 136°
2026-05-04 23:24 -22.60652 -47.71491 23820 ft 409 kts 136°
2026-05-04 23:24 -22.62504 -47.69232 23343 ft 405 kts 136°
2026-05-04 23:25 -22.64367 -47.66962 22856 ft 402 kts 135°
2026-05-04 23:25 -22.66214 -47.64711 22390 ft 398 kts 136°
2026-05-04 23:25 -22.68045 -47.62474 21912 ft 395 kts 135°
2026-05-04 23:25 -22.69864 -47.60254 21437 ft 392 kts 135°
2026-05-04 23:26 -22.71669 -47.58049 20963 ft 390 kts 135°
2026-05-04 23:26 -22.73467 -47.55852 20492 ft 387 kts 135°
2026-05-04 23:26 -22.75249 -47.53674 20044 ft 385 kts 135°
2026-05-04 23:26 -22.77020 -47.51511 19575 ft 383 kts 135°
2026-05-04 23:27 -22.78757 -47.49387 19116 ft 381 kts 135°
2026-05-04 23:27 -22.80511 -47.47240 18658 ft 379 kts 135°
2026-05-04 23:27 -22.82256 -47.45104 18205 ft 378 kts 135°
2026-05-04 23:27 -22.83993 -47.42976 17760 ft 376 kts 135°
2026-05-04 23:28 -22.85721 -47.40859 17326 ft 374 kts 135°
2026-05-04 23:28 -22.87439 -47.38753 16907 ft 372 kts 135°
2026-05-04 23:28 -22.89152 -47.36653 16488 ft 369 kts 134°
2026-05-04 23:28 -22.90852 -47.34567 16084 ft 366 kts 134°
2026-05-04 23:29 -22.92522 -47.32515 15682 ft 363 kts 134°
2026-05-04 23:29 -22.94189 -47.30468 15282 ft 360 kts 134°
2026-05-04 23:29 -22.95843 -47.28438 14894 ft 357 kts 134°
2026-05-04 23:29 -22.97488 -47.26416 14478 ft 355 kts 134°
2026-05-04 23:30 -22.99095 -47.24442 14080 ft 353 kts 133°
2026-05-04 23:30 -23.00715 -47.22451 13677 ft 350 kts 133°
2026-05-04 23:30 -23.02321 -47.20475 13271 ft 348 kts 133°
2026-05-04 23:30 -23.03918 -47.18511 12872 ft 345 kts 133°
2026-05-04 23:31 -23.05502 -47.16560 12466 ft 344 kts 133°
2026-05-04 23:31 -23.07078 -47.14620 12071 ft 341 kts 133°
2026-05-04 23:31 -23.08641 -47.12692 11687 ft 339 kts 133°
2026-05-04 23:31 -23.10184 -47.10790 11299 ft 337 kts 133°
2026-05-04 23:32 -23.11735 -47.08878 10900 ft 335 kts 132°
2026-05-04 23:32 -23.13270 -47.06985 10520 ft 333 kts 132°
2026-05-04 23:32 -23.14797 -47.05101 10151 ft 331 kts 132°
2026-05-04 23:32 -23.16314 -47.03229 9763 ft 329 kts 131°
2026-05-04 23:33 -23.17823 -47.01367 9373 ft 327 kts 131°
2026-05-04 23:33 -23.19326 -46.99507 8980 ft 326 kts 131°
2026-05-04 23:33 -23.20808 -46.97673 8781 ft 318 kts 131°
2026-05-04 23:33 -23.22246 -46.95892 8621 ft 309 kts 131°
2026-05-04 23:34 -23.23645 -46.94160 8467 ft 300 kts 131°
2026-05-04 23:34 -23.25005 -46.92475 8318 ft 292 kts 131°
2026-05-04 23:34 -23.26329 -46.90835 8149 ft 284 kts 131°
2026-05-04 23:34 -23.27603 -46.89257 7979 ft 278 kts 131°
2026-05-04 23:35 -23.28863 -46.87694 7808 ft 271 kts 131°
2026-05-04 23:35 -23.30094 -46.86168 7638 ft 265 kts 131°
2026-05-04 23:35 -23.31296 -46.84678 7470 ft 258 kts 131°
2026-05-04 23:35 -23.32470 -46.83222 7311 ft 252 kts 131°
2026-05-04 23:36 -23.33613 -46.81803 7174 ft 245 kts 131°
2026-05-04 23:36 -23.34555 -46.80633 7049 ft 240 kts 131°
2026-05-04 23:36 -23.35070 -46.79992 6981 ft 237 kts 131°
2026-05-04 23:36 -23.36497 -46.78219 6784 ft 232 kts 131°
2026-05-04 23:37 -23.37554 -46.76906 6640 ft 233 kts 131°
2026-05-04 23:37 -23.38630 -46.75569 6491 ft 232 kts 131°
2026-05-04 23:37 -23.39691 -46.74253 6345 ft 231 kts 131°
2026-05-04 23:37 -23.40747 -46.72941 6199 ft 231 kts 130°
2026-05-04 23:38 -23.41814 -46.71615 6052 ft 230 kts 130°
2026-05-04 23:38 -23.42833 -46.70297 5901 ft 226 kts 126°
2026-05-04 23:38 -23.43735 -46.68908 5754 ft 221 kts 124°
2026-05-04 23:38 -23.44592 -46.67530 5590 ft 217 kts 123°
2026-05-04 23:39 -23.45345 -46.66316 5402 ft 216 kts 123°
2026-05-04 23:39 -23.46081 -46.65131 5212 ft 215 kts 124°
2026-05-04 23:39 -23.46967 -46.63710 4981 ft 214 kts 122°
2026-05-04 23:39 -23.47438 -46.62241 4883 ft 200 kts 91°
2026-05-04 23:40 -23.47233 -46.60765 4673 ft 193 kts 74°
2026-05-04 23:40 -23.46826 -46.59395 4426 ft 189 kts 71°
2026-05-04 23:40 -23.46423 -46.58083 4167 ft 178 kts 72°
2026-05-04 23:40 -23.46070 -46.56832 3927 ft 166 kts 74°
2026-05-04 23:41 -23.45754 -46.55661 3711 ft 156 kts 74°
2026-05-04 23:41 -23.45459 -46.54557 3513 ft 146 kts 75°
2026-05-04 23:41 -23.45178 -46.53515 3341 ft 144 kts 75°
2026-05-04 23:41 -23.44897 -46.52465 3168 ft 143 kts 75°
2026-05-04 23:42 -23.44617 -46.51422 2990 ft 143 kts 75°
2026-05-04 23:42 -23.44334 -46.50388 2805 ft 143 kts 75°
2026-05-04 23:42 -23.44056 -46.49353 2621 ft 142 kts 75°
2026-05-04 23:42 -23.43783 -46.48323 2469 ft 139 kts 75°
2026-05-04 23:43 -23.43552 -46.47475 2468 ft 91 kts 74°
2026-05-04 23:43 -23.43433 -46.47035 2469 ft 26 kts 73°
2026-05-04 23:43 -23.43331 -46.46889 2469 ft 23 kts 43°
2026-05-04 23:43 -23.43220 -46.46775 2469 ft 20 kts 44°
2026-05-04 23:44 -23.43106 -46.46715 2469 ft 18 kts 346°
2026-05-04 23:44 -23.42988 -46.46753 2469 ft 16 kts 344°
2026-05-04 23:44 -23.42879 -46.46787 2469 ft 15 kts 344°
2026-05-04 23:44 -23.42783 -46.46824 2469 ft 13 kts 314°
2026-05-04 23:45 -23.42790 -46.46920 2469 ft 12 kts 254°
2026-05-04 23:45 -23.42815 -46.47010 2469 ft 12 kts 254°
2026-05-04 23:45 -23.42841 -46.47109 2469 ft 16 kts 253°
2026-05-04 23:45 -23.42880 -46.47250 2469 ft 20 kts 254°
2026-05-04 23:46 -23.42917 -46.47390 2469 ft 18 kts 254°
2026-05-04 23:46 -23.42951 -46.47517 2469 ft 16 kts 254°
2026-05-04 23:46 -23.42983 -46.47632 2469 ft 15 kts 253°
2026-05-04 23:46 -23.43011 -46.47738 2468 ft 14 kts 254°
2026-05-04 23:47 -23.43038 -46.47839 2468 ft 13 kts 254°
2026-05-04 23:47 -23.43067 -46.47943 2468 ft 14 kts 254°
2026-05-04 23:47 -23.43094 -46.48042 2468 ft 12 kts 254°
2026-05-04 23:47 -23.43090 -46.48124 2468 ft 11 kts 330°
2026-05-04 23:48 -23.43013 -46.48135 2468 ft 10 kts 354°
2026-05-04 23:48 -23.42943 -46.48142 2468 ft 9 kts 355°
2026-05-04 23:48 -23.42878 -46.48149 2468 ft 8 kts 357°
2026-05-04 23:48 -23.42848 -46.48106 2469 ft 8 kts 86°
2026-05-04 23:49 -23.42845 -46.48066 2469 ft 0 kts 85°